Weather History for LLBG - September, 2012

Change the Weather History Date:

Friday, September 21, 2012

  Actual Average Record
Temperature  
Mean Temperature 80 °F -  
Max Temperature 87 °F 82 °F - ()
Min Temperature 72 °F 66 °F - ()
Cooling Degree Days 14    
Growing Degree Days 30 (Base 50)    
Moisture  
Dew Point 64 °F    
Average Humidity 58    
Maximum Humidity 73    
Minimum Humidity 40    
Precipitation  
Precipitation 0.00 in - - ()
Sea Level Pressure  
Sea Level Pressure 29.91 in    
Wind  
Wind Speed 4 mph ()    
Max Wind Speed 13 mph    
Max Gust Speed -    
Visibility 6.2 miles    
Events      
T = Trace of Precipitation, MM = Missing Value Source: Averaged Metar Reports

Daily Weather History Graph

Daily Weather History Graph

Search for Another Location

Airport or City:

Trip Planner

Search our weather history database for the weather conditions in past years. The results will help you decide how hot, cold, wet, or windy it might be!

Date:

Astronomy

Sep. 21, 2012 Rise Set
Actual Time 6:28 AM IDT 6:38 PM IDT
Civil Twilight 6:03 AM IDT 7:02 PM IDT
Nautical Twilight 5:35 AM IDT 7:31 PM IDT
Astronomical Twilight 5:06 AM IDT 7:59 PM IDT
Moon 12:06 PM IDT (9/21) 10:39 PM IDT (9/21)
Length of Visible Light 12h 58m
Length of Day
12h 10m
Waxing Crescent, 34% of the Moon is Illuminated
Sep 21
Waxing Crescent
Sep 22
First Quarter
Sep 30
Full
Oct 8
Last Quarter
Oct 15
New

Hourly Weather History & Observations

Time (IDT) Temp. Heat Index Dew Point Humidity Pressure Visibility Wind Dir Wind Speed Gust Speed Precip Events Conditions
12:50 AM 77.0 °F - 66.2 °F 69% 29.92 in 6.2 mi ESE 2.3 mph - N/A   Partly Cloudy
1:50 AM 75.2 °F - 64.4 °F 69% 29.92 in 6.2 mi NE 2.3 mph - N/A   Partly Cloudy
2:50 AM 75.2 °F - 64.4 °F 69% 29.89 in 6.2 mi ESE 3.5 mph - N/A   Partly Cloudy
3:00 AM 75 °F - 65 °F 62% 29.91 in 6 mi ESE 3.5 mph - -   Scattered Clouds
3:50 AM 75.2 °F - 64.4 °F 69% 29.92 in 6.2 mi Variable 1.2 mph - N/A   Scattered Clouds
4:50 AM 73.4 °F - 64.4 °F 73% 29.92 in 6.2 mi Variable 1.2 mph - N/A   Partly Cloudy
5:50 AM 73.4 °F - 62.6 °F 69% 29.92 in 6.2 mi East 2.3 mph - N/A   Partly Cloudy
6:50 AM 73.4 °F - 62.6 °F 69% 29.92 in - South 3.5 mph - N/A   Clear
7:50 AM 75.2 °F - 62.6 °F 65% 29.92 in - Variable 1.2 mph - N/A   Clear
8:50 AM 78.8 °F - 64.4 °F 61% 29.92 in 6.2 mi SE 2.3 mph - N/A   Partly Cloudy
9:00 AM 79 °F - 65 °F 52% 29.91 in 6 mi SE 2.3 mph - -   Scattered Clouds
9:50 AM 82.4 °F 83.4 °F 62.6 °F 51% 29.92 in 6.2 mi NW 3.5 mph - N/A   Partly Cloudy
10:50 AM 84.2 °F 85.0 °F 62.6 °F 48% 29.92 in 6.2 mi West 3.5 mph - N/A   Scattered Clouds
11:50 AM 86.0 °F 88.2 °F 66.2 °F 51% 29.89 in 6.2 mi NNW 5.8 mph - N/A   Scattered Clouds
12:50 PM 86.0 °F 87.3 °F 64.4 °F 48% 29.89 in 6.2 mi WNW 8.1 mph - N/A   Scattered Clouds
1:50 PM 86.0 °F 88.2 °F 66.2 °F 51% 29.89 in 6.2 mi WNW 10.4 mph - N/A   Partly Cloudy
2:50 PM 86.0 °F 87.3 °F 64.4 °F 48% 29.89 in 6.2 mi WNW 11.5 mph - N/A   Partly Cloudy
3:00 PM 86 °F - 65 °F 40% 29.88 in 6 mi WNW 11.5 mph - -   Scattered Clouds
3:50 PM 86.0 °F 87.3 °F 64.4 °F 48% 29.89 in 6.2 mi WNW 12.7 mph - N/A   Partly Cloudy
4:50 PM 84.2 °F 85.6 °F 64.4 °F 51% 29.89 in - NW 10.4 mph - N/A   Clear
5:50 PM 82.4 °F 83.9 °F 64.4 °F 54% 29.89 in 6.2 mi NNW 10.4 mph - N/A   Partly Cloudy
6:50 PM 80.6 °F 81.8 °F 62.6 °F 54% 29.89 in - NNW 9.2 mph - N/A   Clear
7:50 PM 80.6 °F 82.3 °F 64.4 °F 58% 29.92 in - NNW 4.6 mph - N/A   Clear
8:50 PM 78.8 °F - 64.4 °F 61% 29.92 in 6.2 mi NNW 4.6 mph - N/A   Partly Cloudy
9:00 PM 79 °F - 64 °F 51% 29.93 in 6 mi NNW 4.6 mph - -   Scattered Clouds
9:50 PM 78.8 °F - 62.6 °F 57% 29.92 in 6.2 mi WNW 1.2 mph - N/A   Scattered Clouds
10:50 PM 77.0 °F - 64.4 °F 65% 29.92 in 6.2 mi Variable 2.3 mph - N/A   Scattered Clouds
11:50 PM 77.0 °F - 64.4 °F 65% 29.92 in 6.2 mi Variable 2.3 mph - N/A   Scattered Clouds